VK5ZSH Weather Reports


time (UTC)temp
F
wind
direction
speed
knots
gust
knots
rain 1hr
in
rain 24hr
in
rain mn
in
humidity
%
barometer
mb
20260503220523 56 0.0 0.0 0.00 0.00 0.00 95
20260503215519 56 0.0 0.0 0.00 0.00 0.00 94
20260503214524 56 0.0 0.0 0.00 0.00 0.00 94
20260503213520 56 0.0 0.0 0.00 0.00 0.00 94
20260503212525 56 0.0 0.0 0.00 0.00 0.00 94
20260503211522 55 0.0 0.0 0.00 0.00 0.00 94
20260503210526 55 0.0 0.0 0.00 0.00 0.00 94
20260503205523 55 0.0 0.0 0.00 0.00 0.00 94
20260503204519 55 0.0 0.0 0.00 0.00 0.00 94
20260503203524 55 0.0 0.0 0.00 0.00 0.00 94
20260503202520 55 0.0 0.0 0.00 0.00 0.00 93
20260503201525 55 0.0 0.0 0.00 0.00 0.00 93
20260503200522 55 0.0 0.0 0.00 0.00 0.00 93
20260503195526 55 0.0 0.0 0.00 0.00 0.00 93
20260503194522 55 0.0 0.0 0.00 0.00 0.00 92
20260503193519 55 0.0 0.0 0.00 0.00 0.00 91
20260503192523 55 0.0 0.0 0.00 0.00 0.00 91
20260503191520 55 0.0 0.0 0.00 0.00 0.00 91
20260503190525 55 0.0 0.0 0.00 0.00 0.00 90
20260503185521 55 0.0 0.0 0.00 0.00 0.00 90
20260503184526 55 0.0 0.0 0.00 0.00 0.00 90
20260503183522 55 0.0 0.0 0.00 0.00 0.00 90
20260503182519 55 0.0 0.0 0.00 0.00 0.00 90
20260503181524 55 0.0 0.0 0.00 0.00 0.00 90
20260503180520 55 0.0 0.0 0.00 0.00 0.00 90
20260503175525 55 0.0 0.0 0.00 0.00 0.00 90
20260503174521 55 0.0 0.0 0.00 0.00 0.00 90
20260503173526 55 0.0 0.0 0.00 0.00 0.00 89
20260503172522 55 0.0 0.0 0.00 0.00 0.00 89
20260503171519 55 0.0 0.0 0.00 0.00 0.00 89
20260503170524 55 0.0 0.0 0.00 0.00 0.00 87
20260503150522 55 0.0 0.0 0.00 0.00 0.00 86
20260503130521 56 0.0 0.0 0.00 0.00 0.00 84
20260503110522 57 0.0 0.0 0.00 0.00 0.00 79
20260503081526 60 0.0 0.0 0.00 0.00 0.00 71
20260503080522 60 0.0 0.0 0.00 0.00 0.00 72
20260503072525 60 0.0 0.0 0.00 0.00 0.00 73
20260503071521 60 0.0 0.0 0.00 0.00 0.00 73
20260503070526 60 0.0 0.0 0.00 0.00 0.00 73
20260503054522 68 0.0 0.0 0.00 0.00 0.00 49
20260503053527 67 0.0 0.0 0.00 0.00 0.00 51
20260503052523 68 0.0 0.0 0.00 0.00 0.00 48
20260503051519 68 0.0 0.0 0.00 0.00 0.00 49
20260503050525 66 0.0 0.0 0.00 0.00 0.00 52
20260503045521 66 0.0 0.0 0.00 0.00 0.00 53
20260503044526 67 0.0 0.0 0.00 0.00 0.00 49
20260503043522 69 0.0 0.0 0.00 0.00 0.00 47
20260503042527 68 0.0 0.0 0.00 0.00 0.00 49
20260503041523 68 0.0 0.0 0.00 0.00 0.00 49
20260503040519 67 0.0 0.0 0.00 0.00 0.00 50
20260503035524 67 0.0 0.0 0.00 0.00 0.00 51
20260503034523 67 0.0 0.0 0.00 0.00 0.00 50
20260503033526 65 0.0 0.0 0.00 0.00 0.00 54
20260503032523 65 0.0 0.0 0.00 0.00 0.00 56
20260503031527 64 0.0 0.0 0.00 0.00 0.00 61
20260503030523 64 0.0 0.0 0.00 0.00 0.00 61
20260503025519 63 0.0 0.0 0.00 0.00 0.00 61
20260503024524 63 0.0 0.0 0.00 0.00 0.00 61
20260503023521 63 0.0 0.0 0.00 0.00 0.00 62
20260503022526 63 0.0 0.0 0.00 0.00 0.00 60
20260503021522 63 0.0 0.0 0.00 0.00 0.00 59
20260503020527 63 0.0 0.0 0.00 0.00 0.00 60
20260503015523 63 0.0 0.0 0.00 0.00 0.00 59
20260503014522 63 0.0 0.0 0.00 0.00 0.00 57
20260503013525 63 0.0 0.0 0.00 0.00 0.00 58
20260503012522 63 0.0 0.0 0.00 0.00 0.00 59
20260503011526 63 0.0 0.0 0.00 0.00 0.00 60
20260503010522 62 0.0 0.0 0.00 0.00 0.00 62
20260503005527 63 0.0 0.0 0.00 0.00 0.00 62
20260503004523 63 0.0 0.0 0.00 0.00 0.00 61
20260503003519 64 0.0 0.0 0.00 0.00 0.00 61
20260503002524 62 0.0 0.0 0.00 0.00 0.00 63
20260503001521 62 0.0 0.0 0.00 0.00 0.00 65
20260503000525 61 0.0 0.0 0.00 0.00 0.00 67
20260502235523 60 0.0 0.0 0.00 0.00 0.00 69
20260502234527 59 0.0 0.0 0.00 0.00 0.00 71
20260502233523 59 0.0 0.0 0.00 0.00 0.00 72
20260502232519 58 0.0 0.0 0.00 0.00 0.00 73
20260502231524 57 0.0 0.0 0.00 0.00 0.00 75
20260502230522 56 0.0 0.0 0.00 0.00 0.00 77
20260502225525 56 0.0 0.0 0.00 0.00 0.00 78
20260502224522 55 0.0 0.0 0.00 0.00 0.00 80
20260502223527 55 0.0 0.0 0.00 0.00 0.00 81
20260502222523 54 0.0 0.0 0.00 0.00 0.00 83
20260502221519 54 0.0 0.0 0.00 0.00 0.00 84